Find Kosmos-2425

NORAD ID: 29671 Int'l Des: 2006-062 Owner: KVR/IACG Country: RU Constellation: GLONASS operational
MEOCIRCULAR

当前视图

正在加载3D地球...

About Kosmos-2425

Kosmos-2425 (NORAD 29671) is a GLONASS constellation satellite launched Dec 25, 2006 by KVR/IACG of RU. It operates in MEO, CIRCULAR orbit with a mass of 1450.00 kg.

关于 Kosmos-2425

正在加载描述...

即将过境

Passes for default location (London). Set your location on the main map for personalized predictions.

高度历史

Loading altitude history...

两行轨道根数

1 29671U 06062B 26173.04985369 .00000080 00000-0 00000-0 0 9990
2 29671 64.7006 194.3798 0021718 184.6113 354.1942 2.12963927151651
Epoch: Jun 22, 2026 • Age: 37 hours

当前状态

高度 19158.8 km
速度 3.95 km/s
星下点 -64.67°S, 18.16°W
发射日期 Dec 25, 2006
运行时间 19.4 years
类型 other

技术详情

分类 Payload
质量 1450.00 kg
干质量 1200.00 kg
总质量 1450.00 kg
长度 4.00 m
直径 1.50 m
跨度 7.80 m
形状 Cyl + Ant + 2 Pan
制造商 RESH
平台类型 Uragan
阶段状态 In Orbit
所有者/国家 KVR/IACG/RU

Most Searched